N0NB Weather Reports


Display with metric or nautical units.
time (UTC)temp
F
wind
direction
speed
MPH
gust
MPH
rain 1hr
in
rain 24hr
in
rain mn
in
humidity
%
barometer
mb
20170920035517 80 180 10.0 18.0 0.00 0.00 0.00 77 1001.6
20170920034518 80 180 10.0 17.0 0.00 0.00 0.00 77 1001.5
20170920033517 81 157 10.0 17.0 0.00 0.00 0.00 77 1001.5
20170920032518 81 157 10.0 18.0 0.00 0.00 0.00 76 1001.5
20170920031517 81 157 10.0 24.0 0.00 0.00 0.00 75 1001.4
20170920030517 81 157 12.0 21.0 0.00 0.00 0.00 75 1001.2
20170920025517 82 157 13.0 22.0 0.00 0.00 0.00 74 1000.9
20170920024518 82 180 11.0 17.0 0.00 0.00 0.00 73 1000.7
20170920023517 82 157 11.0 23.0 0.00 0.00 0.00 72 1000.5
20170920022517 82 157 12.0 20.0 0.00 0.00 0.00 71 1000.3
20170920021518 83 157 12.0 21.0 0.00 0.00 0.00 70 1000.2
20170920020518 83 157 13.0 20.0 0.00 0.00 0.00 69 1000.0
20170920015517 83 157 12.0 23.0 0.00 0.00 0.00 68 1000.0
20170920014517 84 157 11.0 21.0 0.00 0.00 0.00 67 1000.1
20170920013517 84 135 10.0 17.0 0.00 0.00 0.00 66 1000.1
20170920012517 84 135 10.0 18.0 0.00 0.00 0.00 65 1000.1
20170920011517 85 157 10.0 18.0 0.00 0.00 0.00 64 999.9
20170920010517 85 157 11.0 17.0 0.00 0.00 0.00 64 999.9
20170920005517 85 157 10.0 16.0 0.00 0.00 0.00 63 999.7
20170920004517 85 135 9.0 15.0 0.00 0.00 0.00 62 999.6
20170920003517 86 135 9.0 19.0 0.00 0.00 0.00 61 999.7
20170920002517 87 157 9.0 17.0 0.00 0.00 0.00 58 999.8
20170920001517 88 157 9.0 19.0 0.00 0.00 0.00 55 999.9
20170920000517 88 157 10.0 16.0 0.00 0.00 0.00 54 999.9
20170919235517 89 180 9.0 17.0 0.00 0.00 0.00 53 999.9
20170919234518 89 180 10.0 19.0 0.00 0.00 0.00 52 1000.0
20170919233517 90 180 10.0 17.0 0.00 0.00 0.00 51 1000.0
20170919232517 90 180 12.0 22.0 0.00 0.00 0.00 50 1000.0
20170919231517 90 202 10.0 19.0 0.00 0.00 0.00 50 1000.1
20170919230517 91 180 11.0 20.0 0.00 0.00 0.00 50 1000.1
20170919225517 91 180 12.0 23.0 0.00 0.00 0.00 51 1000.1
20170919224517 91 157 12.0 24.0 0.00 0.00 0.00 49 1000.1
20170919223517 92 157 13.0 25.0 0.00 0.00 0.00 49 1000.1
20170919222517 92 157 11.0 21.0 0.00 0.00 0.00 50 1000.3
20170919221517 92 157 14.0 24.0 0.00 0.00 0.00 49 1000.4
20170919220517 92 157 14.0 24.0 0.00 0.00 0.00 48 1000.5
20170919215517 93 180 11.0 24.0 0.00 0.00 0.00 48 1000.6
20170919214517 93 202 12.0 25.0 0.00 0.00 0.00 47 1000.6
20170919213518 93 180 13.0 23.0 0.00 0.00 0.00 48 1000.7
20170919212517 93 157 15.0 27.0 0.00 0.00 0.00 47 1000.8
20170919211517 93 180 11.0 22.0 0.00 0.00 0.00 48 1000.8
20170919210516 93 157 12.0 25.0 0.00 0.00 0.00 48 1000.8
20170919205517 93 157 14.0 29.0 0.00 0.00 0.00 47 1001.1
20170919204517 93 135 14.0 30.0 0.00 0.00 0.00 46 1001.2
20170919203517 93 157 15.0 22.0 0.00 0.00 0.00 46 1001.4
20170919202517 93 157 11.0 23.0 0.00 0.00 0.00 48 1001.5
20170919201517 92 157 12.0 25.0 0.00 0.00 0.00 48 1001.9
20170919200517 92 157 13.0 22.0 0.00 0.00 0.00 50 1002.0
20170919195517 91 157 13.0 23.0 0.00 0.00 0.00 50 1002.2
20170919194517 91 157 13.0 22.0 0.00 0.00 0.00 51 1002.4
20170919193516 91 135 13.0 21.0 0.00 0.00 0.00 50 1002.5
20170919192516 91 157 12.0 22.0 0.00 0.00 0.00 50 1002.8
20170919191516 91 157 13.0 25.0 0.00 0.00 0.00 49 1003.0
20170919190517 91 157 11.0 21.0 0.00 0.00 0.00 50 1003.2
20170919185516 91 180 11.0 23.0 0.00 0.00 0.00 50 1003.3
20170919184516 90 157 13.0 24.0 0.00 0.00 0.00 49 1003.5
20170919183517 90 135 12.0 20.0 0.00 0.00 0.00 51 1003.7
20170919182516 89 180 13.0 19.0 0.00 0.00 0.00 50 1003.9
20170919181516 89 157 12.0 24.0 0.00 0.00 0.00 51 1004.1
20170919180516 89 157 12.0 21.0 0.00 0.00 0.00 52 1004.2
20170919175516 89 157 11.0 21.0 0.00 0.00 0.00 52 1004.6
20170919174516 88 157 12.0 20.0 0.00 0.00 0.00 54 1004.9
20170919173516 88 180 11.0 20.0 0.00 0.00 0.00 53 1005.1
20170919172516 87 180 12.0 23.0 0.00 0.00 0.00 54 1005.0
20170919171516 86 180 11.0 17.0 0.00 0.00 0.00 56 1005.2
20170919170516 86 157 11.0 22.0 0.00 0.00 0.00 56 1005.6
20170919165516 85 180 11.0 19.0 0.00 0.00 0.00 58 1005.8
20170919164516 85 180 11.0 21.0 0.00 0.00 0.00 59 1005.8
20170919163516 84 180 10.0 18.0 0.00 0.00 0.00 59 1006.1
20170919162516 84 202 11.0 18.0 0.00 0.00 0.00 59 1006.2
20170919161516 83 180 9.0 16.0 0.00 0.00 0.00 61 1006.4
20170919160516 83 180 9.0 20.0 0.00 0.00 0.00 62 1006.6
20170919155516 82 202 9.0 15.0 0.00 0.00 0.00 65 1006.8
20170919154516 82 180 9.0 13.0 0.00 0.00 0.00 64 1006.9
20170919153516 81 180 9.0 15.0 0.00 0.00 0.00 65 1007.0
20170919152516 81 157 7.0 15.0 0.00 0.00 0.00 66 1007.1
20170919151518 80 202 7.0 13.0 0.00 0.01 0.00 69 1007.3
20170919150518 78 180 8.0 15.0 0.00 0.02 0.00 73 1007.5
20170919145518 77 157 7.0 15.0 0.00 0.02 0.00 74 1007.6
20170919144518 76 157 8.0 13.0 0.00 0.05 0.00 76 1007.7
20170919143518 75 157 8.0 16.0 0.00 0.09 0.00 79 1007.7
20170919142518 74 157 8.0 15.0 0.00 0.18 0.00 81 1007.9
20170919141518 73 157 9.0 16.0 0.00 0.18 0.00 83 1008.0
20170919140518 72 157 7.0 12.0 0.00 0.18 0.00 85 1008.0
20170919135519 72 157 6.0 12.0 0.00 0.18 0.00 87 1008.1
20170919134518 70 135 6.0 10.0 0.00 0.18 0.00 89 1008.4
20170919133518 69 157 5.0 12.0 0.00 0.18 0.00 91 1008.4
20170919132518 69 157 5.0 9.0 0.00 0.18 0.00 93 1008.4
20170919131518 68 157 4.0 7.0 0.00 0.19 0.00 94 1008.4
20170919130518 67 157 4.0 7.0 0.00 0.19 0.00 94 1008.6
20170919125518 66 135 4.0 6.0 0.00 0.19 0.00 95 1008.6
20170919124518 65 135 1.0 4.0 0.00 0.21 0.00 95 1008.5
20170919123517 64 0.0 2.0 0.00 0.21 0.00 94 1008.5
20170919122518 64 0.0 0.0 0.00 0.21 0.00 94 1008.4
20170919121517 64 0.0 0.0 0.00 0.22 0.00 94 1008.4
20170919120518 64 0.0 0.0 0.00 0.23 0.00 94 1008.4
20170919115517 64 0.0 0.0 0.00 0.24 0.00 94 1008.4
20170919114517 64 0.0 0.0 0.00 0.24 0.00 93 1008.4
20170919113518 65 0.0 0.0 0.00 0.24 0.00 92 1008.4
20170919112517 65 0.0 0.0 0.00 0.24 0.00 93 1008.5
20170919111517 65 0.0 0.0 0.00 0.25 0.00 92 1008.4
20170919110517 66 0.0 0.0 0.00 0.26 0.00 92 1008.5
20170919105517 66 0.0 0.0 0.00 0.26 0.00 92 1008.5
20170919104518 66 0.0 0.0 0.00 0.26 0.00 92 1008.5
20170919103517 66 0.0 0.0 0.00 0.29 0.00 92 1008.4
20170919102517 66 0.0 0.0 0.00 0.30 0.00 91 1008.5
20170919101517 67 0.0 2.0 0.00 0.31 0.00 91 1008.5
20170919100517 67 180 1.0 2.0 0.00 0.37 0.00 91 1008.5
20170919095517 67 180 1.0 2.0 0.00 0.48 0.00 91 1008.6
20170919094517 67 180 2.0 4.0 0.00 0.48 0.00 91 1008.6
20170919093517 67 180 2.0 6.0 0.00 0.49 0.00 91 1008.7
20170919092517 67 180 2.0 4.0 0.00 0.49 0.00 90 1008.8
20170919091517 68 180 2.0 5.0 0.00 0.49 0.00 90 1008.8
20170919090517 68 157 3.0 5.0 0.00 0.49 0.00 90 1008.8
20170919085517 68 157 2.0 6.0 0.00 0.49 0.00 90 1009.0
20170919084517 68 180 2.0 5.0 0.00 0.50 0.00 89 1009.1
20170919083517 68 202 2.0 5.0 0.00 0.50 0.00 89 1009.3
20170919082517 68 157 2.0 5.0 0.00 0.50 0.00 89 1009.4
20170919081517 68 180 2.0 4.0 0.00 0.50 0.00 90 1009.5
20170919080517 68 180 3.0 6.0 0.00 0.50 0.00 91 1009.5
20170919075517 68 157 2.0 5.0 0.00 0.50 0.00 91 1009.4
20170919074518 68 157 3.0 7.0 0.00 0.50 0.00 91 1009.5
20170919073517 68 180 3.0 6.0 0.00 0.50 0.00 92 1009.5
20170919072517 68 157 3.0 5.0 0.00 0.50 0.00 92 1009.6
20170919071517 68 157 4.0 7.0 0.00 0.50 0.00 92 1009.7
20170919070517 68 135 3.0 6.0 0.00 0.50 0.00 92 1009.8
20170919065517 68 135 3.0 4.0 0.00 0.50 0.00 92 1009.9
20170919064517 68 135 3.0 8.0 0.00 0.50 0.00 92 1010.1
20170919063517 68 135 1.0 3.0 0.00 0.50 0.00 92 1010.3
20170919062517 68 135 2.0 3.0 0.00 0.50 0.00 92 1010.3
20170919061517 68 157 3.0 5.0 0.00 0.50 0.00 92 1010.3
20170919060517 68 157 3.0 5.0 0.00 0.50 0.00 92 1010.3
20170919055517 68 157 3.0 6.0 0.00 0.50 0.00 91 1010.3
20170919054517 69 135 3.0 5.0 0.00 0.50 0.00 91 1010.4
20170919053517 69 157 3.0 5.0 0.00 0.50 0.00 91 1010.5
20170919052517 69 135 3.0 5.0 0.00 0.50 0.00 91 1010.5
20170919051517 69 135 3.0 5.0 0.00 0.50 0.00 91 1010.5
20170919050517 69 157 3.0 6.0 0.00 0.50 0.00 91 1010.5
20170919045516 69 135 3.0 5.0 0.00 0.50 0.50 90 1010.5
20170919044516 69 157 3.0 6.0 0.00 0.50 0.50 90 1010.7
20170919043518 69 135 3.0 5.0 0.00 0.50 0.50 90 1010.8
20170919042518 69 135 3.0 8.0 0.00 0.50 0.50 89 1010.7
20170919041518 69 157 3.0 8.0 0.00 0.50 0.50 89 1010.8
20170919040518 70 157 3.0 8.0 0.00 0.50 0.50 89 1010.7